Time,TemperatureF,DewpointF,PressureIn,WindDirection,WindDirectionDegrees,WindSpeedMPH,WindSpeedGustMPH,Humidity,HourlyPrecipIn,Conditions,Clouds,dailyrainin,SolarRadiationWatts/m^2,SoftwareType,DateUTC
2013-04-24 00:01:00,39.7,35.6,30.13,WSW,244,0.0,0.0,85,0.00,,,0.00,0.0,meteohub,2013-04-24 04:01:00,
2013-04-24 00:02:00,39.7,35.6,30.13,WSW,244,0.0,0.0,85,0.00,,,0.00,0.0,meteohub,2013-04-24 04:02:00,
2013-04-24 00:04:00,39.7,35.6,30.13,WSW,244,0.0,0.0,85,0.00,,,0.00,0.0,meteohub,2013-04-24 04:04:00,
2013-04-24 00:05:00,39.6,35.4,30.13,WSW,244,0.0,0.0,85,0.00,,,0.00,0.0,meteohub,2013-04-24 04:05:00,
2013-04-24 00:10:00,39.6,35.4,30.13,WSW,244,0.0,0.0,85,0.00,,,0.00,0.0,meteohub,2013-04-24 04:10:00,
2013-04-24 00:16:00,39.4,35.2,30.13,WSW,244,0.0,0.0,85,0.00,,,0.00,0.0,meteohub,2013-04-24 04:16:00,
2013-04-24 00:21:00,39.2,35.4,30.13,WSW,244,0.0,0.0,86,0.00,,,0.00,0.0,meteohub,2013-04-24 04:21:00,
2013-04-24 00:27:00,39.0,35.2,30.13,WSW,244,0.0,0.0,86,0.00,,,0.00,0.0,meteohub,2013-04-24 04:27:00,
2013-04-24 00:32:00,38.8,35.1,30.13,WSW,244,0.0,0.0,86,0.00,,,0.00,0.0,meteohub,2013-04-24 04:32:00,
2013-04-24 00:37:00,38.7,34.9,30.12,WSW,244,0.0,0.0,86,0.00,,,0.00,0.0,meteohub,2013-04-24 04:37:00,
2013-04-24 00:42:00,38.7,34.9,30.13,WSW,244,0.0,0.0,86,0.00,,,0.00,0.0,meteohub,2013-04-24 04:42:00,
2013-04-24 00:47:00,38.5,34.7,30.13,WSW,244,0.0,0.0,86,0.00,,,0.00,0.0,meteohub,2013-04-24 04:47:00,
2013-04-24 00:52:00,38.5,34.7,30.12,WSW,244,0.0,0.0,86,0.00,,,0.00,0.0,meteohub,2013-04-24 04:52:00,
2013-04-24 00:57:00,38.3,34.7,30.12,WSW,244,0.0,0.0,87,0.00,,,0.00,0.0,meteohub,2013-04-24 04:57:00,
2013-04-24 01:03:00,38.1,34.5,30.12,WSW,244,0.0,0.0,87,0.00,,,0.00,0.0,meteohub,2013-04-24 05:03:00,
2013-04-24 01:08:00,37.9,34.3,30.11,WSW,244,0.0,0.0,87,0.00,,,0.00,0.0,meteohub,2013-04-24 05:08:00,
2013-04-24 01:13:00,37.8,34.2,30.11,WSW,244,0.0,0.0,87,0.00,,,0.00,0.0,meteohub,2013-04-24 05:13:00,
2013-04-24 01:19:00,37.6,34.0,30.11,WSW,244,0.0,0.0,87,0.00,,,0.00,0.0,meteohub,2013-04-24 05:19:00,
2013-04-24 01:24:00,37.6,34.0,30.10,WSW,244,0.0,0.0,87,0.00,,,0.00,0.0,meteohub,2013-04-24 05:24:00,
2013-04-24 01:29:00,37.2,34.0,30.10,WSW,244,0.0,0.0,88,0.00,,,0.00,0.0,meteohub,2013-04-24 05:29:00,
2013-04-24 01:34:00,37.2,34.0,30.09,WSW,244,0.0,0.0,88,0.00,,,0.00,0.0,meteohub,2013-04-24 05:34:00,
2013-04-24 01:40:00,37.0,33.8,30.09,WSW,244,0.0,0.0,88,0.00,,,0.00,0.0,meteohub,2013-04-24 05:40:00,
2013-04-24 01:45:00,37.0,33.8,30.09,WSW,244,0.0,0.0,88,0.00,,,0.00,0.0,meteohub,2013-04-24 05:45:00,
2013-04-24 01:50:00,36.9,33.6,30.09,WSW,244,0.0,1.0,88,0.00,,,0.00,0.0,meteohub,2013-04-24 05:50:00,
2013-04-24 01:56:00,36.7,33.4,30.09,WSW,244,0.0,1.0,88,0.00,,,0.00,0.0,meteohub,2013-04-24 05:56:00,
2013-04-24 02:01:00,36.7,33.4,30.09,WSW,244,0.0,1.0,88,0.00,,,0.00,0.0,meteohub,2013-04-24 06:01:00,
2013-04-24 02:06:00,36.5,33.3,30.09,WSW,244,0.0,1.0,88,0.00,,,0.00,0.0,meteohub,2013-04-24 06:06:00,
2013-04-24 02:12:00,36.3,33.4,30.09,WSW,244,0.0,1.0,89,0.00,,,0.00,0.0,meteohub,2013-04-24 06:12:00,
2013-04-24 02:17:00,36.3,33.4,30.08,WSW,244,0.0,1.0,89,0.00,,,0.00,0.0,meteohub,2013-04-24 06:17:00,
2013-04-24 02:22:00,36.3,33.4,30.08,WSW,244,0.0,1.0,89,0.00,,,0.00,0.0,meteohub,2013-04-24 06:22:00,
2013-04-24 02:27:00,36.1,33.3,30.08,WSW,244,0.0,1.0,89,0.00,,,0.00,0.0,meteohub,2013-04-24 06:27:00,
2013-04-24 02:32:00,36.1,33.3,30.07,WSW,244,0.0,0.0,89,0.00,,,0.00,0.0,meteohub,2013-04-24 06:32:00,
2013-04-24 02:37:00,36.0,33.1,30.08,WSW,244,1.0,0.0,89,0.00,,,0.00,0.0,meteohub,2013-04-24 06:37:00,
2013-04-24 02:42:00,36.0,33.1,30.07,WSW,244,0.0,2.0,89,0.00,,,0.00,0.0,meteohub,2013-04-24 06:42:00,
2013-04-24 02:47:00,35.8,32.9,30.07,WSW,244,0.0,2.0,89,0.00,,,0.00,0.0,meteohub,2013-04-24 06:47:00,
2013-04-24 02:52:00,35.8,32.9,30.07,WSW,244,0.0,2.0,89,0.00,,,0.00,0.0,meteohub,2013-04-24 06:52:00,
2013-04-24 02:57:00,35.8,32.9,30.07,WSW,244,0.0,2.0,89,0.00,,,0.00,0.0,meteohub,2013-04-24 06:57:00,
2013-04-24 03:02:00,35.6,32.7,30.07,WSW,244,0.0,0.0,89,0.00,,,0.00,0.0,meteohub,2013-04-24 07:02:00,
2013-04-24 03:07:00,35.4,32.5,30.07,WSW,244,0.0,0.0,89,0.00,,,0.00,0.0,meteohub,2013-04-24 07:07:00,
2013-04-24 03:12:00,35.4,32.5,30.07,WSW,244,0.0,0.0,89,0.00,,,0.00,0.0,meteohub,2013-04-24 07:12:00,
2013-04-24 03:17:00,35.4,32.5,30.06,WSW,244,0.0,0.0,89,0.00,,,0.00,0.0,meteohub,2013-04-24 07:17:00,
2013-04-24 03:22:00,35.2,32.4,30.06,ESE,119,0.0,2.0,89,0.00,,,0.00,0.0,meteohub,2013-04-24 07:22:00,
2013-04-24 03:27:00,35.2,32.5,30.06,ESE,119,0.0,2.0,90,0.00,,,0.00,0.0,meteohub,2013-04-24 07:27:00,
2013-04-24 03:32:00,35.1,32.4,30.06,ESE,120,0.0,2.0,90,0.00,,,0.00,0.0,meteohub,2013-04-24 07:32:00,
2013-04-24 03:37:00,35.1,32.4,30.06,ESE,120,0.0,2.0,90,0.00,,,0.00,0.0,meteohub,2013-04-24 07:37:00,
2013-04-24 03:42:00,34.9,32.2,30.06,ESE,120,0.0,2.0,90,0.00,,,0.00,0.0,meteohub,2013-04-24 07:42:00,
2013-04-24 03:47:00,34.7,32.0,30.05,ESE,120,0.0,2.0,90,0.00,,,0.00,0.0,meteohub,2013-04-24 07:47:00,
2013-04-24 03:52:00,34.5,31.8,30.05,ESE,120,0.0,1.0,90,0.00,,,0.00,0.0,meteohub,2013-04-24 07:52:00,
2013-04-24 03:57:00,34.5,31.8,30.05,ESE,120,0.0,1.0,90,0.00,,,0.00,0.0,meteohub,2013-04-24 07:57:00,
2013-04-24 04:03:00,34.3,31.6,30.05,ESE,120,0.0,1.0,90,0.00,,,0.00,0.0,meteohub,2013-04-24 08:03:00,
2013-04-24 04:08:00,34.3,31.6,30.05,ESE,120,0.0,1.0,90,0.00,,,0.00,0.0,meteohub,2013-04-24 08:08:00,
2013-04-24 04:13:00,34.2,31.5,30.05,ESE,120,0.0,0.0,90,0.00,,,0.00,0.0,meteohub,2013-04-24 08:13:00,
2013-04-24 04:19:00,34.2,31.5,30.05,ESE,120,0.0,0.0,90,0.00,,,0.00,0.0,meteohub,2013-04-24 08:19:00,
2013-04-24 04:24:00,34.2,31.5,30.05,ESE,120,0.0,0.0,90,0.00,,,0.00,0.0,meteohub,2013-04-24 08:24:00,
2013-04-24 04:29:00,34.0,31.3,30.05,ESE,120,0.0,0.0,90,0.00,,,0.00,0.0,meteohub,2013-04-24 08:29:00,
2013-04-24 04:34:00,34.0,31.3,30.05,ESE,120,0.0,0.0,90,0.00,,,0.00,0.0,meteohub,2013-04-24 08:34:00,
2013-04-24 04:40:00,34.0,31.3,30.05,ESE,120,0.0,0.0,90,0.00,,,0.00,0.0,meteohub,2013-04-24 08:40:00,
2013-04-24 04:45:00,33.8,31.1,30.05,ESE,120,0.0,0.0,90,0.00,,,0.00,0.0,meteohub,2013-04-24 08:45:00,
2013-04-24 04:50:00,33.8,31.1,30.05,ESE,120,0.0,1.0,90,0.00,,,0.00,0.0,meteohub,2013-04-24 08:50:00,
2013-04-24 04:56:00,33.6,31.3,30.05,ESE,120,0.0,1.0,91,0.00,,,0.00,0.0,meteohub,2013-04-24 08:56:00,
2013-04-24 05:01:00,33.6,30.9,30.05,ESE,120,0.0,1.0,90,0.00,,,0.00,0.0,meteohub,2013-04-24 09:01:00,
2013-04-24 05:06:00,33.6,30.9,30.05,ESE,120,0.0,1.0,90,0.00,,,0.00,0.0,meteohub,2013-04-24 09:06:00,
2013-04-24 05:12:00,33.4,31.1,30.04,ESE,120,0.0,1.0,91,0.00,,,0.00,0.0,meteohub,2013-04-24 09:12:00,
2013-04-24 05:17:00,33.4,30.7,30.04,ESE,120,0.0,1.0,90,0.00,,,0.00,0.0,meteohub,2013-04-24 09:17:00,
2013-04-24 05:22:00,33.3,30.9,30.04,ESE,120,0.0,1.0,91,0.00,,,0.00,0.0,meteohub,2013-04-24 09:22:00,
2013-04-24 05:27:00,33.3,30.9,30.04,ESE,120,0.0,0.0,91,0.00,,,0.00,0.0,meteohub,2013-04-24 09:27:00,
2013-04-24 05:32:00,33.1,30.7,30.04,ESE,120,0.0,0.0,91,0.00,,,0.00,0.0,meteohub,2013-04-24 09:32:00,
2013-04-24 05:37:00,33.1,30.7,30.05,ESE,120,0.0,0.0,91,0.00,,,0.00,0.0,meteohub,2013-04-24 09:37:00,
2013-04-24 05:42:00,32.9,30.6,30.06,ESE,120,0.0,1.0,91,0.00,,,0.00,0.0,meteohub,2013-04-24 09:42:00,
2013-04-24 05:47:00,32.7,30.4,30.06,ESE,120,0.0,1.0,91,0.00,,,0.00,0.0,meteohub,2013-04-24 09:47:00,
2013-04-24 05:52:00,32.7,30.4,30.06,ESE,120,0.0,1.0,91,0.00,,,0.00,0.0,meteohub,2013-04-24 09:52:00,
2013-04-24 05:57:00,32.7,30.4,30.05,ESE,120,0.0,1.0,91,0.00,,,0.00,0.0,meteohub,2013-04-24 09:57:00,
2013-04-24 06:02:00,32.5,30.2,30.05,ESE,120,0.0,1.0,91,0.00,,,0.00,0.0,meteohub,2013-04-24 10:02:00,
2013-04-24 06:07:00,32.5,30.2,30.05,ESE,120,0.0,1.0,91,0.00,,,0.00,0.0,meteohub,2013-04-24 10:07:00,
2013-04-24 06:12:00,32.4,30.0,30.05,ESE,120,0.0,1.0,91,0.00,,,0.00,5.0,meteohub,2013-04-24 10:12:00,
2013-04-24 06:17:00,32.4,30.0,30.05,ESE,120,0.0,1.0,91,0.00,,,0.00,9.0,meteohub,2013-04-24 10:17:00,
2013-04-24 06:22:00,32.4,30.0,30.05,ESE,120,0.0,1.0,91,0.00,,,0.00,11.0,meteohub,2013-04-24 10:22:00,
2013-04-24 06:28:00,32.4,30.0,30.05,ESE,120,0.0,0.0,91,0.00,,,0.00,14.0,meteohub,2013-04-24 10:28:00,
2013-04-24 06:33:00,32.4,30.0,30.06,ESE,120,0.0,0.0,91,0.00,,,0.00,16.0,meteohub,2013-04-24 10:33:00,
2013-04-24 06:38:00,32.4,30.0,30.06,ESE,120,0.0,0.0,91,0.00,,,0.00,18.0,meteohub,2013-04-24 10:38:00,
2013-04-24 06:43:00,32.4,30.0,30.06,ESE,120,0.0,0.0,91,0.00,,,0.00,19.0,meteohub,2013-04-24 10:43:00,
2013-04-24 06:49:00,32.4,30.0,30.06,ESE,120,0.0,0.0,91,0.00,,,0.00,21.0,meteohub,2013-04-24 10:49:00,
2013-04-24 06:54:00,32.4,30.4,30.05,ESE,120,0.0,1.0,92,0.00,,,0.00,25.0,meteohub,2013-04-24 10:54:00,
2013-04-24 06:59:00,32.4,30.4,30.05,ESE,120,0.0,1.0,92,0.00,,,0.00,28.0,meteohub,2013-04-24 10:59:00,
2013-04-24 07:05:00,32.5,30.6,30.06,ESE,120,0.0,1.0,92,0.00,,,0.00,26.0,meteohub,2013-04-24 11:05:00,
2013-04-24 07:10:00,32.7,30.7,30.06,ESE,120,0.0,1.0,92,0.00,,,0.00,26.0,meteohub,2013-04-24 11:10:00,
2013-04-24 07:15:00,33.1,31.3,30.06,ESE,120,0.0,1.0,93,0.00,,,0.00,26.0,meteohub,2013-04-24 11:15:00,
2013-04-24 07:21:00,33.4,31.6,30.06,ESE,120,0.0,0.0,93,0.00,,,0.00,28.0,meteohub,2013-04-24 11:21:00,
2013-04-24 07:26:00,33.8,32.0,30.06,ESE,120,0.0,0.0,93,0.00,,,0.00,28.0,meteohub,2013-04-24 11:26:00,
2013-04-24 07:31:00,34.2,32.4,30.06,ESE,120,0.0,0.0,93,0.00,,,0.00,30.0,meteohub,2013-04-24 11:31:00,
2013-04-24 07:37:00,34.5,32.7,30.05,ESE,120,0.0,1.0,93,0.00,,,0.00,30.0,meteohub,2013-04-24 11:37:00,
2013-04-24 07:42:00,35.2,33.6,30.05,ESE,120,1.0,1.0,94,0.00,,,0.00,30.0,meteohub,2013-04-24 11:42:00,
2013-04-24 07:47:00,36.0,34.3,30.05,ESE,120,0.0,1.0,94,0.00,,,0.00,32.0,meteohub,2013-04-24 11:47:00,
2013-04-24 07:52:00,37.0,35.4,30.04,ESE,120,0.0,1.0,94,0.00,,,0.00,33.0,meteohub,2013-04-24 11:52:00,
2013-04-24 07:57:00,37.6,36.0,30.04,ESE,120,0.0,1.0,94,0.00,,,0.00,33.0,meteohub,2013-04-24 11:57:00,
2013-04-24 08:02:00,37.9,36.3,30.04,ESE,120,0.0,1.0,94,0.00,,,0.00,35.0,meteohub,2013-04-24 12:02:00,
2013-04-24 08:07:00,38.5,36.9,30.04,ESE,120,1.0,1.0,94,0.00,,,0.00,35.0,meteohub,2013-04-24 12:07:00,
2013-04-24 08:12:00,38.8,37.2,30.04,ESE,104,0.0,1.0,94,0.00,,,0.00,35.0,meteohub,2013-04-24 12:12:00,
2013-04-24 08:17:00,39.2,37.6,30.03,ESE,104,0.0,2.0,94,0.00,,,0.00,37.0,meteohub,2013-04-24 12:17:00,
2013-04-24 08:22:00,39.4,37.8,30.03,ESE,103,0.0,2.0,94,0.00,,,0.00,37.0,meteohub,2013-04-24 12:22:00,
2013-04-24 08:27:00,39.9,38.3,30.03,West,279,1.0,2.0,94,0.00,,,0.00,39.0,meteohub,2013-04-24 12:27:00,
2013-04-24 08:32:00,40.5,38.8,30.03,West,279,1.0,3.0,94,0.00,,,0.00,39.0,meteohub,2013-04-24 12:32:00,
2013-04-24 08:37:00,41.0,39.4,30.02,SSW,213,3.0,3.0,94,0.00,,,0.00,40.0,meteohub,2013-04-24 12:37:00,
2013-04-24 08:43:00,41.7,40.1,30.02,SSW,211,0.0,3.0,94,0.00,,,0.00,40.0,meteohub,2013-04-24 12:43:00,
2013-04-24 08:48:00,42.3,40.6,30.02,NE,50,0.0,3.0,94,0.00,,,0.00,42.0,meteohub,2013-04-24 12:48:00,
2013-04-24 08:53:00,42.6,41.0,30.02,West,277,3.0,4.0,94,0.00,,,0.00,44.0,meteohub,2013-04-24 12:53:00,
2013-04-24 08:59:00,43.0,41.4,30.02,SW,230,3.0,4.0,94,0.00,,,0.00,46.0,meteohub,2013-04-24 12:59:00,
2013-04-24 09:04:00,43.3,41.5,30.02,SW,217,0.0,4.0,93,0.00,,,0.00,325.0,meteohub,2013-04-24 13:04:00,
2013-04-24 09:09:00,44.8,42.8,30.01,WSW,238,1.0,4.0,93,0.00,,,0.00,476.0,meteohub,2013-04-24 13:09:00,
2013-04-24 09:15:00,45.9,43.2,30.01,WSW,238,0.0,5.0,90,0.00,,,0.00,262.0,meteohub,2013-04-24 13:15:00,
2013-04-24 09:20:00,46.6,43.0,30.01,WSW,238,0.0,5.0,87,0.00,,,0.00,258.0,meteohub,2013-04-24 13:20:00,
2013-04-24 09:25:00,47.3,43.0,30.01,ESE,113,2.0,5.0,85,0.00,,,0.00,497.0,meteohub,2013-04-24 13:25:00,
2013-04-24 09:30:00,48.2,43.0,30.00,ESE,113,1.0,5.0,82,0.00,,,0.00,550.0,meteohub,2013-04-24 13:30:00,
2013-04-24 09:36:00,48.9,43.3,30.00,ESE,121,0.0,3.0,81,0.00,,,0.00,404.0,meteohub,2013-04-24 13:36:00,
2013-04-24 09:41:00,49.3,42.8,30.01,SW,224,3.0,3.0,78,0.00,,,0.00,258.0,meteohub,2013-04-24 13:41:00,
2013-04-24 09:46:00,49.6,43.3,30.00,WSW,254,0.0,3.0,79,0.00,,,0.00,410.0,meteohub,2013-04-24 13:46:00,
2013-04-24 09:52:00,50.4,43.3,30.00,SSE,159,0.0,3.0,77,0.00,,,0.00,279.0,meteohub,2013-04-24 13:52:00,
2013-04-24 09:57:00,50.5,43.3,30.00,ESE,118,2.0,7.0,76,0.00,,,0.00,262.0,meteohub,2013-04-24 13:57:00,
2013-04-24 10:02:00,50.7,43.2,29.99,SE,125,0.0,7.0,75,0.00,,,0.00,578.0,meteohub,2013-04-24 14:02:00,
2013-04-24 10:07:00,51.4,44.1,29.99,SSE,151,2.0,7.0,76,0.00,,,0.00,461.0,meteohub,2013-04-24 14:07:00,
2013-04-24 10:12:00,51.6,43.5,29.99,South,191,2.0,7.0,74,0.00,,,0.00,390.0,meteohub,2013-04-24 14:12:00,
2013-04-24 10:17:00,51.6,43.3,29.98,SSE,153,5.0,6.0,73,0.00,,,0.00,350.0,meteohub,2013-04-24 14:17:00,
2013-04-24 10:22:00,52.2,44.4,29.98,South,172,4.0,6.0,75,0.00,,,0.00,617.0,meteohub,2013-04-24 14:22:00,
2013-04-24 10:27:00,52.5,44.1,29.98,SSE,148,1.0,6.0,73,0.00,,,0.00,705.0,meteohub,2013-04-24 14:27:00,
2013-04-24 10:32:00,52.9,44.1,29.98,South,170,3.0,6.0,72,0.00,,,0.00,729.0,meteohub,2013-04-24 14:32:00,
2013-04-24 10:37:00,53.2,44.8,29.97,SE,129,0.0,6.0,73,0.00,,,0.00,728.0,meteohub,2013-04-24 14:37:00,
2013-04-24 10:42:00,53.6,44.1,29.97,SSE,165,0.0,6.0,70,0.00,,,0.00,656.0,meteohub,2013-04-24 14:42:00,
2013-04-24 10:47:00,54.0,44.8,29.97,ESE,117,0.0,6.0,71,0.00,,,0.00,752.0,meteohub,2013-04-24 14:47:00,
2013-04-24 10:52:00,54.3,44.8,29.97,ESE,110,0.0,6.0,70,0.00,,,0.00,793.0,meteohub,2013-04-24 14:52:00,
2013-04-24 10:57:00,54.9,44.1,29.97,South,186,1.0,6.0,67,0.00,,,0.00,805.0,meteohub,2013-04-24 14:57:00,
2013-04-24 11:02:00,55.2,45.7,29.96,South,182,0.0,6.0,70,0.00,,,0.00,817.0,meteohub,2013-04-24 15:02:00,
2013-04-24 11:09:00,55.6,45.1,29.96,SE,128,2.0,6.0,68,0.00,,,0.00,837.0,meteohub,2013-04-24 15:09:00,
2013-04-24 11:14:00,56.5,46.4,29.96,ESE,115,1.0,6.0,69,0.00,,,0.00,881.0,meteohub,2013-04-24 15:14:00,
2013-04-24 11:20:00,57.0,46.2,29.95,SW,221,3.0,6.0,67,0.00,,,0.00,860.0,meteohub,2013-04-24 15:20:00,
2013-04-24 11:25:00,56.8,45.7,29.95,East,94,0.0,6.0,66,0.00,,,0.00,824.0,meteohub,2013-04-24 15:25:00,
2013-04-24 11:30:00,57.4,46.6,29.95,SSE,165,3.0,6.0,67,0.00,,,0.00,888.0,meteohub,2013-04-24 15:30:00,
2013-04-24 11:36:00,57.2,45.1,29.95,SW,218,3.0,7.0,64,0.00,,,0.00,441.0,meteohub,2013-04-24 15:36:00,
2013-04-24 11:41:00,57.2,44.8,29.93,SSW,192,0.0,7.0,63,0.00,,,0.00,461.0,meteohub,2013-04-24 15:41:00,
2013-04-24 11:46:00,57.6,46.2,29.93,ESE,105,1.0,7.0,66,0.00,,,0.00,431.0,meteohub,2013-04-24 15:46:00,
2013-04-24 11:52:00,57.7,45.7,29.93,East,95,2.0,7.0,64,0.00,,,0.00,292.0,meteohub,2013-04-24 15:52:00,
2013-04-24 11:57:00,57.7,47.3,29.93,South,173,1.0,6.0,68,0.00,,,0.00,780.0,meteohub,2013-04-24 15:57:00,
2013-04-24 12:02:00,58.6,46.9,29.92,WSW,240,1.0,6.0,65,0.00,,,0.00,956.0,meteohub,2013-04-24 16:02:00,
2013-04-24 12:07:00,59.5,46.6,29.91,ESE,113,4.0,6.0,62,0.00,,,0.00,960.0,meteohub,2013-04-24 16:07:00,
2013-04-24 12:12:00,59.5,47.3,29.91,East,101,5.0,6.0,64,0.00,,,0.00,986.0,meteohub,2013-04-24 16:12:00,
2013-04-24 12:17:00,60.4,47.3,29.91,South,172,3.0,7.0,62,0.00,,,0.00,388.0,meteohub,2013-04-24 16:17:00,
2013-04-24 12:22:00,60.6,48.0,29.90,SE,125,4.0,7.0,63,0.00,,,0.00,863.0,meteohub,2013-04-24 16:22:00,
2013-04-24 12:27:00,60.6,46.2,29.89,South,187,0.0,7.0,59,0.00,,,0.00,610.0,meteohub,2013-04-24 16:27:00,
2013-04-24 12:32:00,60.6,46.2,29.89,East,101,1.0,7.0,59,0.00,,,0.00,758.0,meteohub,2013-04-24 16:32:00,
2013-04-24 12:37:00,61.0,46.6,29.89,SSW,196,3.0,7.0,59,0.00,,,0.00,636.0,meteohub,2013-04-24 16:37:00,
2013-04-24 12:42:00,61.3,46.4,29.88,SSW,194,5.0,9.0,58,0.00,,,0.00,513.0,meteohub,2013-04-24 16:42:00,
2013-04-24 12:47:00,62.1,48.4,29.87,South,176,1.0,9.0,61,0.00,,,0.00,979.0,meteohub,2013-04-24 16:47:00,
2013-04-24 12:52:00,62.8,47.8,29.87,SSE,155,0.0,9.0,58,0.00,,,0.00,334.0,meteohub,2013-04-24 16:52:00,
2013-04-24 12:57:00,62.8,47.8,29.86,SSE,159,1.0,9.0,58,0.00,,,0.00,383.0,meteohub,2013-04-24 16:57:00,
2013-04-24 13:02:00,63.3,48.4,29.85,ESE,122,2.0,9.0,58,0.00,,,0.00,775.0,meteohub,2013-04-24 17:02:00,
2013-04-24 13:07:00,63.7,49.1,29.85,SSW,206,6.0,9.0,59,0.00,,,0.00,763.0,meteohub,2013-04-24 17:07:00,
2013-04-24 13:12:00,63.7,47.3,29.84,SE,132,0.0,9.0,55,0.00,,,0.00,896.0,meteohub,2013-04-24 17:12:00,
2013-04-24 13:17:00,63.7,47.7,29.84,South,182,7.0,9.0,56,0.00,,,0.00,898.0,meteohub,2013-04-24 17:17:00,
2013-04-24 13:22:00,64.0,48.0,29.83,SSE,153,6.0,10.0,56,0.00,,,0.00,933.0,meteohub,2013-04-24 17:22:00,
2013-04-24 13:27:00,64.2,47.3,29.83,NNW,338,1.0,10.0,54,0.00,,,0.00,882.0,meteohub,2013-04-24 17:27:00,
2013-04-24 13:32:00,64.9,49.3,29.82,WSW,247,3.0,10.0,57,0.00,,,0.00,877.0,meteohub,2013-04-24 17:32:00,
2013-04-24 13:37:00,65.5,49.3,29.82,ESE,118,1.0,10.0,56,0.00,,,0.00,874.0,meteohub,2013-04-24 17:37:00,
2013-04-24 13:42:00,65.8,49.3,29.82,South,190,4.0,10.0,55,0.00,,,0.00,874.0,meteohub,2013-04-24 17:42:00,
2013-04-24 13:47:00,65.8,48.2,29.82,WSW,250,4.0,10.0,53,0.00,,,0.00,875.0,meteohub,2013-04-24 17:47:00,
2013-04-24 13:52:00,66.0,47.3,29.82,SSE,160,2.0,9.0,51,0.00,,,0.00,343.0,meteohub,2013-04-24 17:52:00,
2013-04-24 13:57:00,65.8,47.1,29.82,East,90,0.0,9.0,51,0.00,,,0.00,434.0,meteohub,2013-04-24 17:57:00,
2013-04-24 14:02:00,65.7,47.5,29.82,West,261,3.0,10.0,52,0.00,,,0.00,316.0,meteohub,2013-04-24 18:02:00,
2013-04-24 14:07:00,65.5,47.5,29.82,SW,221,10.0,10.0,52,0.00,,,0.00,352.0,meteohub,2013-04-24 18:07:00,
2013-04-24 14:13:00,65.3,46.8,29.82,SW,216,1.0,10.0,51,0.00,,,0.00,427.0,meteohub,2013-04-24 18:13:00,
2013-04-24 14:18:00,65.7,47.5,29.82,South,175,0.0,10.0,52,0.00,,,0.00,399.0,meteohub,2013-04-24 18:18:00,
2013-04-24 14:23:00,65.8,47.1,29.82,South,179,0.0,10.0,51,0.00,,,0.00,285.0,meteohub,2013-04-24 18:23:00,
2013-04-24 14:29:00,66.0,47.8,29.81,South,184,0.0,7.0,52,0.00,,,0.00,274.0,meteohub,2013-04-24 18:29:00,
2013-04-24 14:34:00,65.8,47.1,29.81,SSW,207,0.0,7.0,51,0.00,,,0.00,264.0,meteohub,2013-04-24 18:34:00,
2013-04-24 14:39:00,65.8,47.1,29.81,SSW,206,4.0,9.0,51,0.00,,,0.00,272.0,meteohub,2013-04-24 18:39:00,
2013-04-24 14:45:00,65.7,47.1,29.80,SE,141,2.0,9.0,51,0.00,,,0.00,413.0,meteohub,2013-04-24 18:45:00,
2013-04-24 14:50:00,65.8,47.7,29.80,SSE,160,0.0,9.0,52,0.00,,,0.00,552.0,meteohub,2013-04-24 18:50:00,
2013-04-24 14:55:00,66.6,48.9,29.79,ESE,113,0.0,9.0,53,0.00,,,0.00,691.0,meteohub,2013-04-24 18:55:00,
2013-04-24 15:01:00,67.5,49.3,29.79,SSE,161,0.0,9.0,52,0.00,,,0.00,606.0,meteohub,2013-04-24 19:01:00,
2013-04-24 15:06:00,68.0,49.3,29.78,SW,217,3.0,9.0,51,0.00,,,0.00,527.0,meteohub,2013-04-24 19:06:00,
2013-04-24 15:11:00,68.5,49.6,29.78,SW,230,2.0,10.0,51,0.00,,,0.00,742.0,meteohub,2013-04-24 19:11:00,
2013-04-24 15:16:00,68.7,49.3,29.78,South,177,3.0,10.0,50,0.00,,,0.00,724.0,meteohub,2013-04-24 19:16:00,
2013-04-24 15:22:00,69.1,49.6,29.77,South,177,2.0,10.0,50,0.00,,,0.00,712.0,meteohub,2013-04-24 19:22:00,
2013-04-24 15:27:00,69.4,49.5,29.76,South,189,5.0,10.0,49,0.00,,,0.00,703.0,meteohub,2013-04-24 19:27:00,
2013-04-24 15:32:00,70.2,50.2,29.75,SSE,150,1.0,9.0,49,0.00,,,0.00,689.0,meteohub,2013-04-24 19:32:00,
2013-04-24 15:37:00,70.3,50.4,29.75,SSE,167,2.0,9.0,49,0.00,,,0.00,675.0,meteohub,2013-04-24 19:37:00,
2013-04-24 15:42:00,70.7,50.5,29.75,South,186,6.0,12.0,49,0.00,,,0.00,666.0,meteohub,2013-04-24 19:42:00,
2013-04-24 15:47:00,71.1,49.8,29.75,SE,124,3.0,12.0,47,0.00,,,0.00,652.0,meteohub,2013-04-24 19:47:00,
2013-04-24 15:52:00,71.4,50.2,29.74,SW,224,0.0,9.0,47,0.00,,,0.00,640.0,meteohub,2013-04-24 19:52:00,
2013-04-24 15:57:00,71.6,49.6,29.74,SSW,207,2.0,9.0,46,0.00,,,0.00,624.0,meteohub,2013-04-24 19:57:00,
2013-04-24 16:02:00,72.0,50.7,29.74,SW,225,0.0,14.0,47,0.00,,,0.00,612.0,meteohub,2013-04-24 20:02:00,
2013-04-24 16:08:00,72.1,50.2,29.75,SSE,166,4.0,14.0,46,0.00,,,0.00,592.0,meteohub,2013-04-24 20:08:00,
2013-04-24 16:13:00,72.5,51.1,29.74,South,178,3.0,14.0,47,0.00,,,0.00,584.0,meteohub,2013-04-24 20:13:00,
2013-04-24 16:18:00,72.7,51.3,29.74,East,98,3.0,11.0,47,0.00,,,0.00,564.0,meteohub,2013-04-24 20:18:00,
2013-04-24 16:24:00,72.3,49.8,29.74,West,266,6.0,11.0,45,0.00,,,0.00,531.0,meteohub,2013-04-24 20:24:00,
2013-04-24 16:29:00,72.7,50.7,29.74,SSW,195,0.0,16.0,46,0.00,,,0.00,468.0,meteohub,2013-04-24 20:29:00,
2013-04-24 16:34:00,72.9,50.9,29.74,South,173,3.0,16.0,46,0.00,,,0.00,469.0,meteohub,2013-04-24 20:34:00,
2013-04-24 16:40:00,72.7,50.2,29.74,SSW,209,0.0,15.0,45,0.00,,,0.00,417.0,meteohub,2013-04-24 20:40:00,
2013-04-24 16:45:00,72.7,50.2,29.74,SSE,155,3.0,15.0,45,0.00,,,0.00,380.0,meteohub,2013-04-24 20:45:00,
2013-04-24 16:50:00,72.1,50.7,29.74,South,180,6.0,12.0,47,0.00,,,0.00,350.0,meteohub,2013-04-24 20:50:00,
2013-04-24 16:56:00,72.1,50.2,29.73,SSE,159,3.0,12.0,46,0.00,,,0.00,230.0,meteohub,2013-04-24 20:56:00,
2013-04-24 17:01:00,72.0,50.0,29.73,SW,215,1.0,13.0,46,0.00,,,0.00,306.0,meteohub,2013-04-24 21:01:00,
2013-04-24 17:06:00,72.0,51.3,29.73,East,92,1.0,13.0,48,0.00,,,0.00,262.0,meteohub,2013-04-24 21:06:00,
2013-04-24 17:11:00,71.8,49.8,29.73,SSW,206,0.0,13.0,46,0.00,,,0.00,135.0,meteohub,2013-04-24 21:11:00,
2013-04-24 17:17:00,71.8,49.8,29.73,SSW,193,3.0,13.0,46,0.00,,,0.00,116.0,meteohub,2013-04-24 21:17:00,
2013-04-24 17:22:00,71.6,50.4,29.73,South,189,0.0,9.0,47,0.00,,,0.00,162.0,meteohub,2013-04-24 21:22:00,
2013-04-24 17:27:00,71.6,50.9,29.73,South,190,2.0,9.0,48,0.00,,,0.00,176.0,meteohub,2013-04-24 21:27:00,
2013-04-24 17:32:00,71.4,50.7,29.73,SSW,201,2.0,9.0,48,0.00,,,0.00,206.0,meteohub,2013-04-24 21:32:00,
2013-04-24 17:37:00,71.6,51.4,29.72,SSW,197,1.0,9.0,49,0.00,,,0.00,316.0,meteohub,2013-04-24 21:37:00,
2013-04-24 17:42:00,72.0,50.7,29.72,SW,229,1.0,11.0,47,0.00,,,0.00,132.0,meteohub,2013-04-24 21:42:00,
2013-04-24 17:47:00,72.0,50.7,29.72,South,187,3.0,11.0,47,0.00,,,0.00,104.0,meteohub,2013-04-24 21:47:00,
2013-04-24 17:52:00,71.8,51.1,29.72,SSW,198,2.0,17.0,48,0.00,,,0.00,98.0,meteohub,2013-04-24 21:52:00,
2013-04-24 17:57:00,71.4,50.2,29.71,South,188,0.0,17.0,47,0.00,,,0.00,105.0,meteohub,2013-04-24 21:57:00,
2013-04-24 18:02:00,71.4,51.3,29.71,SSE,152,0.0,12.0,49,0.00,,,0.00,104.0,meteohub,2013-04-24 22:02:00,
2013-04-24 18:07:00,71.2,50.5,29.71,ENE,58,0.0,12.0,48,0.00,,,0.00,114.0,meteohub,2013-04-24 22:07:00,
2013-04-24 18:12:00,71.2,51.1,29.70,SSW,196,3.0,13.0,49,0.00,,,0.00,111.0,meteohub,2013-04-24 22:12:00,
2013-04-24 18:17:00,71.2,51.1,29.70,SE,134,2.0,13.0,49,0.00,,,0.00,113.0,meteohub,2013-04-24 22:17:00,
2013-04-24 18:22:00,71.2,50.5,29.70,South,187,2.0,10.0,48,0.00,,,0.00,104.0,meteohub,2013-04-24 22:22:00,
2013-04-24 18:28:00,71.2,51.1,29.70,South,187,0.0,10.0,49,0.00,,,0.00,84.0,meteohub,2013-04-24 22:28:00,
2013-04-24 18:33:00,71.2,51.1,29.69,South,180,4.0,10.0,49,0.00,,,0.00,60.0,meteohub,2013-04-24 22:33:00,
2013-04-24 18:38:00,71.2,51.1,29.70,SW,221,3.0,12.0,49,0.00,,,0.00,58.0,meteohub,2013-04-24 22:38:00,
2013-04-24 18:44:00,71.1,50.9,29.70,SSW,199,1.0,12.0,49,0.00,,,0.00,69.0,meteohub,2013-04-24 22:44:00,
2013-04-24 18:49:00,71.1,50.4,29.70,SSE,155,0.0,12.0,48,0.00,,,0.00,65.0,meteohub,2013-04-24 22:49:00,
2013-04-24 18:54:00,71.2,50.5,29.70,SSW,194,1.0,12.0,48,0.00,,,0.00,56.0,meteohub,2013-04-24 22:54:00,
2013-04-24 19:00:00,71.1,50.4,29.70,SSW,209,1.0,12.0,48,0.00,,,0.00,49.0,meteohub,2013-04-24 23:00:00,
2013-04-24 19:05:00,71.1,50.9,29.70,SSW,196,1.0,12.0,49,0.00,,,0.00,37.0,meteohub,2013-04-24 23:05:00,
2013-04-24 19:10:00,70.9,50.7,29.69,SSW,198,2.0,12.0,49,0.00,,,0.00,30.0,meteohub,2013-04-24 23:10:00,
2013-04-24 19:15:00,70.5,50.4,29.68,SSE,168,0.0,10.0,49,0.00,,,0.00,26.0,meteohub,2013-04-24 23:15:00,
2013-04-24 19:21:00,70.3,50.9,29.68,South,183,2.0,10.0,50,0.00,,,0.00,19.0,meteohub,2013-04-24 23:21:00,
2013-04-24 19:26:00,70.2,50.7,29.68,SW,216,2.0,10.0,50,0.00,,,0.00,11.0,meteohub,2013-04-24 23:26:00,
2013-04-24 19:31:00,70.2,50.2,29.67,South,175,2.0,7.0,49,0.00,,,0.00,7.0,meteohub,2013-04-24 23:31:00,
2013-04-24 19:37:00,70.2,50.7,29.67,South,172,0.0,7.0,50,0.00,,,0.00,0.0,meteohub,2013-04-24 23:37:00,
2013-04-24 19:42:00,70.2,50.7,29.68,SSW,196,1.0,14.0,50,0.00,,,0.00,0.0,meteohub,2013-04-24 23:42:00,
2013-04-24 19:47:00,70.0,50.5,29.68,SSE,153,3.0,14.0,50,0.00,,,0.00,0.0,meteohub,2013-04-24 23:47:00,
2013-04-24 19:52:00,69.8,50.4,29.67,SSW,202,9.0,14.0,50,0.00,,,0.00,0.0,meteohub,2013-04-24 23:52:00,
2013-04-24 19:57:00,69.6,50.2,29.68,SSW,204,4.0,14.0,50,0.00,,,0.00,0.0,meteohub,2013-04-24 23:57:00,
2013-04-24 20:02:00,69.8,50.4,29.69,WSW,240,4.0,11.0,50,0.00,,,0.00,0.0,meteohub,2013-04-25 00:02:00,
2013-04-24 20:07:00,70.0,50.5,29.70,WSW,248,3.0,11.0,50,0.00,,,0.00,0.0,meteohub,2013-04-25 00:07:00,
2013-04-24 20:12:00,70.0,50.5,29.70,ENE,66,1.0,13.0,50,0.00,,,0.00,0.0,meteohub,2013-04-25 00:12:00,
2013-04-24 20:17:00,70.0,50.5,29.70,SSE,157,3.0,13.0,50,0.00,,,0.00,0.0,meteohub,2013-04-25 00:17:00,
2013-04-24 20:22:00,69.8,50.9,29.70,South,188,6.0,15.0,51,0.00,,,0.00,0.0,meteohub,2013-04-25 00:22:00,
2013-04-24 20:27:00,69.6,50.7,29.70,SSW,205,4.0,15.0,51,0.00,,,0.00,0.0,meteohub,2013-04-25 00:27:00,
2013-04-24 20:32:00,69.4,50.5,29.71,South,186,4.0,15.0,51,0.00,,,0.00,0.0,meteohub,2013-04-25 00:32:00,
2013-04-24 20:37:00,69.4,51.1,29.71,WSW,248,3.0,15.0,52,0.00,,,0.00,0.0,meteohub,2013-04-25 00:37:00,
2013-04-24 20:42:00,69.3,50.9,29.71,South,186,6.0,17.0,52,0.00,,,0.00,0.0,meteohub,2013-04-25 00:42:00,
2013-04-24 20:47:00,69.1,51.3,29.71,SW,217,5.0,17.0,53,0.00,,,0.00,0.0,meteohub,2013-04-25 00:47:00,
2013-04-24 20:52:00,68.7,50.9,29.72,SSW,200,4.0,17.0,53,0.00,,,0.00,0.0,meteohub,2013-04-25 00:52:00,
2013-04-24 20:57:00,68.7,51.4,29.72,SSW,213,8.0,17.0,54,0.00,,,0.00,0.0,meteohub,2013-04-25 00:57:00,
2013-04-24 21:02:00,68.5,51.3,29.72,SSE,159,12.0,15.0,54,0.00,,,0.00,0.0,meteohub,2013-04-25 01:02:00,
2013-04-24 21:07:00,68.4,51.1,29.72,SW,215,3.0,15.0,54,0.00,,,0.00,0.0,meteohub,2013-04-25 01:07:00,
2013-04-24 21:12:00,68.2,50.9,29.72,South,186,9.0,15.0,54,0.00,,,0.00,0.0,meteohub,2013-04-25 01:12:00,
2013-04-24 21:17:00,67.8,51.1,29.72,SSW,204,9.0,15.0,55,0.00,,,0.00,0.0,meteohub,2013-04-25 01:17:00,
2013-04-24 21:22:00,67.6,50.9,29.72,SSW,205,5.0,14.0,55,0.00,,,0.00,0.0,meteohub,2013-04-25 01:22:00,
2013-04-24 21:27:00,67.5,51.3,29.72,SSW,192,1.0,14.0,56,0.00,,,0.00,0.0,meteohub,2013-04-25 01:27:00,
2013-04-24 21:32:00,67.1,51.4,29.72,SSW,205,1.0,14.0,57,0.00,,,0.00,0.0,meteohub,2013-04-25 01:32:00,
2013-04-24 21:37:00,66.7,51.1,29.72,South,181,5.0,14.0,57,0.00,,,0.00,0.0,meteohub,2013-04-25 01:37:00,
2013-04-24 21:42:00,66.6,51.3,29.72,South,186,1.0,16.0,58,0.00,,,0.00,0.0,meteohub,2013-04-25 01:42:00,
2013-04-24 21:47:00,66.0,51.3,29.72,SW,215,3.0,16.0,59,0.00,,,0.00,0.0,meteohub,2013-04-25 01:47:00,
2013-04-24 21:52:00,65.8,51.1,29.71,ESE,117,1.0,16.0,59,0.00,,,0.00,0.0,meteohub,2013-04-25 01:52:00,
2013-04-24 21:57:00,65.7,51.4,29.71,WNW,293,3.0,16.0,60,0.00,,,0.00,0.0,meteohub,2013-04-25 01:57:00,
2013-04-24 22:02:00,65.5,51.3,29.72,South,173,6.0,14.0,60,0.00,,,0.00,0.0,meteohub,2013-04-25 02:02:00,
2013-04-24 22:07:00,65.1,50.9,29.73,SSW,213,7.0,14.0,60,0.00,,,0.00,0.0,meteohub,2013-04-25 02:07:00,
2013-04-24 22:12:00,65.1,51.3,29.73,SW,231,6.0,14.0,61,0.00,,,0.00,0.0,meteohub,2013-04-25 02:12:00,
2013-04-24 22:17:00,64.9,51.1,29.72,South,178,4.0,14.0,61,0.00,,,0.00,0.0,meteohub,2013-04-25 02:17:00,
2013-04-24 22:22:00,64.8,51.4,29.72,SW,227,6.0,14.0,62,0.00,,,0.00,0.0,meteohub,2013-04-25 02:22:00,
2013-04-24 22:27:00,64.6,51.3,29.72,South,179,4.0,14.0,62,0.00,,,0.00,0.0,meteohub,2013-04-25 02:27:00,
2013-04-24 22:32:00,64.4,51.1,29.72,SW,223,5.0,18.0,62,0.00,,,0.00,0.0,meteohub,2013-04-25 02:32:00,
2013-04-24 22:37:00,64.2,51.4,29.72,West,260,1.0,18.0,63,0.00,,,0.00,0.0,meteohub,2013-04-25 02:37:00,
2013-04-24 22:42:00,64.0,51.3,29.72,WSW,242,6.0,16.0,63,0.00,,,0.00,0.0,meteohub,2013-04-25 02:42:00,
2013-04-24 22:47:00,63.9,51.4,29.71,South,182,2.0,16.0,64,0.00,,,0.00,0.0,meteohub,2013-04-25 02:47:00,
2013-04-24 22:52:00,63.7,51.3,29.71,South,178,11.0,16.0,64,0.00,,,0.00,0.0,meteohub,2013-04-25 02:52:00,
2013-04-24 22:58:00,63.5,51.4,29.72,SSW,210,0.0,16.0,65,0.00,,,0.00,0.0,meteohub,2013-04-25 02:58:00,
2013-04-24 23:03:00,63.3,51.4,29.71,South,177,2.0,12.0,65,0.00,,,0.00,0.0,meteohub,2013-04-25 03:03:00,
2013-04-24 23:08:00,63.1,51.6,29.72,SSE,163,3.0,12.0,66,0.00,,,0.00,0.0,meteohub,2013-04-25 03:08:00,
2013-04-24 23:14:00,63.0,51.4,29.72,SSW,195,1.0,14.0,66,0.00,,,0.00,0.0,meteohub,2013-04-25 03:14:00,
2013-04-24 23:19:00,62.8,51.6,29.72,SW,224,3.0,14.0,67,0.00,,,0.00,0.0,meteohub,2013-04-25 03:19:00,
2013-04-24 23:24:00,62.6,51.4,29.71,SSW,192,1.0,14.0,67,0.00,,,0.00,0.0,meteohub,2013-04-25 03:24:00,
2013-04-24 23:29:00,62.2,51.6,29.71,SSW,212,5.0,13.0,68,0.00,,,0.00,0.0,meteohub,2013-04-25 03:29:00,
2013-04-24 23:35:00,62.1,51.4,29.71,SSW,200,10.0,13.0,68,0.00,,,0.00,0.0,meteohub,2013-04-25 03:35:00,
2013-04-24 23:40:00,62.1,51.8,29.72,SSE,167,4.0,13.0,69,0.00,,,0.00,0.0,meteohub,2013-04-25 03:40:00,
2013-04-24 23:45:00,61.9,52.0,29.71,SW,217,3.0,13.0,70,0.00,,,0.00,0.0,meteohub,2013-04-25 03:45:00,
2013-04-24 23:51:00,61.7,51.8,29.71,South,170,7.0,13.0,70,0.00,,,0.00,0.0,meteohub,2013-04-25 03:51:00,
2013-04-24 23:56:00,61.5,51.6,29.77,NNW,335,5.0,13.0,70,0.00,,,0.00,0.0,meteohub,2013-04-25 03:56:00,